Location: Dreilärchen
(47.9312°N, 8.6113°E)
Time: 23:47:19
(UTC+00:00)

Cosmos 2084 Rocket - Pass Details

Date: 26 May 2022
Orbit: 497 x 678 km, 62.8° (Epoch: 02 July)

Event Time Altitude Azimuth Distance (km) Brightness Sun altitude
Exits shadow 01:49:40 20° 245° (WSW) 1,215 4.6 -13.5°
Maximum altitude 01:52:06 53° 316° (NW) 622 3.6 -13.3°
Drops below altitude 10° 01:55:50 10° 34° (NE) 1,707 7.3 -12.9°
Sets 01:58:02 0° 40° (NE) 2,600 8.9 -12.7°
